カタログに戻る

DELTA 2 R/B(2)

運用中GTO
NORAD 22098·ROCKET BODY·🇺🇸 United States

打ち上げ Aug 31, 1992 から Cape Canaveral Space Force Station

Loading…

TLE

経年Source: Space-Track

元期: Sep 14, 2026, 10:15 UTC

1 22098U 92057C   26257.42749065 -.00000071  00000-0  00000-0 0  9992
2 22098  20.1476 275.3106 6762346 176.7821 356.9053  2.17559282270509

AllMySatでDELTA 2 R/B(2)をリアルタイム追跡

Download on the App Store